Terminal Aerodrome Forecast
Issued by NWS

Home | Current Version | Previous Version | Text Only | Print | Product List | Glossary On
Versions: 1 2 3 4 5 6 7 8 9 10 11 12
000
FTUS46 KSGX 251700
TAFTRM
TAF
KTRM 251721Z 2518/2618 VRB06KT P6SM SCT100
     FM260100 33011KT P6SM SCT100
     FM261200 33007KT P6SM SCT200=

USA.gov is the U.S. government's official web portal to all federal, state and local government web resources and services.